�N����,����,�~����,�C��,���x,�C��,����,���ϕ���,�ő�u�ԕ���,�ő厞����,���˗�,�I�_���x,�n�����x,�ő啗���N��,DTYPE
"23/06/03","00:10",0.0,19.5,97.8,996.3,343.0,1.0,2.4,351.0,0.00,19.2,20.0,"00:04:32",1
"23/06/03","00:20",0.0,19.4,98.3,996.3,312.8,0.6,1.0,318.6,0.00,19.2,20.0,"00:18:32",1
"23/06/03","00:30",0.0,19.4,97.9,996.0,326.7,0.8,1.3,342.2,0.00,19.1,20.1,"00:25:28",1
"23/06/03","00:40",0.0,19.4,98.4,995.8,318.1,0.7,1.3,336.4,0.00,19.2,20.0,"00:36:56",1
"23/06/03","00:50",0.0,19.3,97.9,996.0,282.0,1.0,1.6,323.3,0.00,19.0,20.1,"00:48:16",1
"23/06/03","01:00",0.0,19.2,98.4,995.8,312.7,0.8,1.3,339.0,0.00,19.0,19.9,"00:55:04",1
"23/06/03","01:10",0.0,19.2,97.9,996.0,316.6,0.8,1.2,320.5,0.00,18.9,19.9,"01:05:36",1
"23/06/03","01:20",0.0,19.0,98.4,995.8,284.7,0.3,1.2,334.7,0.00,18.8,19.9,"01:13:20",1
"23/06/03","01:30",0.0,19.1,98.0,995.8,278.7,0.7,1.1,249.5,0.00,18.8,20.0,"01:24:40",1
"23/06/03","01:40",0.0,19.1,97.9,996.5,297.9,0.7,1.2,320.5,0.00,18.8,20.0,"01:31:04",1
"23/06/03","01:50",0.0,18.9,98.5,995.8,331.1,0.7,1.2,336.8,0.00,18.7,20.0,"01:48:56",1
"23/06/03","02:00",0.0,19.0,98.0,995.8,326.5,0.8,1.7,341.4,0.00,18.7,20.1,"01:52:00",1
"23/06/03","02:10",0.0,18.8,98.0,996.3,295.7,1.0,2.0,307.1,0.00,18.5,20.0,"02:09:20",1
"23/06/03","02:20",0.0,18.7,98.0,996.3,310.7,1.2,2.1,312.6,0.00,18.4,19.8,"02:15:36",1
"23/06/03","02:30",0.0,18.7,98.0,995.8,334.0,1.1,1.8,348.6,0.00,18.4,19.9,"02:28:40",1
"23/06/03","02:40",0.0,18.6,98.0,995.8,348.1,1.1,2.2,340.8,0.00,18.3,19.9,"02:30:32",1
"23/06/03","02:50",0.0,18.5,98.0,995.8,326.3,1.1,2.2,300.1,0.00,18.2,20.0,"02:48:16",1
"23/06/03","03:00",0.0,18.5,98.0,995.6,286.6,0.8,2.0,328.9,0.00,18.2,19.8,"02:50:32",1
"23/06/03","03:10",0.0,18.4,98.1,995.8,316.4,1.2,2.2,331.2,0.00,18.1,19.7,"03:08:00",1
"23/06/03","03:20",0.0,18.3,98.1,996.0,328.3,1.3,2.2,344.2,0.00,18.0,19.7,"03:11:20",1
"23/06/03","03:30",0.0,18.4,98.1,996.3,326.6,0.8,1.8,343.8,0.00,18.1,20.0,"03:21:52",1
"23/06/03","03:40",0.0,18.2,98.1,996.0,332.5,1.1,2.5,332.4,0.00,17.9,19.7,"03:35:44",1
"23/06/03","03:50",0.0,18.2,98.1,995.8,340.7,1.1,1.9,344.0,0.00,17.9,19.9,"03:49:12",1
"23/06/03","04:00",0.0,18.1,98.1,996.3,333.3,1.1,2.0,333.2,0.00,17.8,19.8,"03:59:20",1
"23/06/03","04:10",0.0,18.1,98.1,996.5,338.3,1.1,2.2,345.5,0.00,17.8,19.8,"04:06:16",1
"23/06/03","04:20",0.0,18.0,98.2,996.5,338.8,1.2,2.4,339.9,0.00,17.8,19.8,"04:10:32",1
"23/06/03","04:30",0.0,18.0,98.2,996.5,346.7,1.0,1.8,338.0,0.00,17.8,19.8,"04:25:28",1
"23/06/03","04:40",0.0,17.9,98.2,996.3,334.3,1.5,2.7,343.5,0.00,17.7,19.7,"04:39:20",1
"23/06/03","04:50",0.0,17.8,98.2,996.5,328.0,1.5,3.1,340.9,0.00,17.6,19.8,"04:42:16",1
"23/06/03","05:00",0.0,17.7,98.2,996.5,325.9,1.2,2.0,336.8,0.00,17.5,19.6,"04:58:32",1
"23/06/03","05:10",0.0,17.7,98.3,996.5,316.9,1.2,2.4,305.7,0.00,17.5,19.7,"05:06:16",1
"23/06/03","05:20",0.0,17.5,98.3,996.5,320.4,1.3,2.0,353.6,0.00,17.3,19.7,"05:12:24",1
"23/06/03","05:30",0.0,17.6,98.3,996.0,321.8,1.2,2.0,321.3,0.00,17.4,19.8,"05:22:24",1
"23/06/03","05:40",0.0,17.7,98.2,996.7,341.1,1.1,1.6,341.3,0.00,17.5,19.8,"05:39:04",1
"23/06/03","05:50",0.0,17.6,98.2,997.0,325.1,1.3,2.2,331.7,0.00,17.4,19.8,"05:43:28",1
"23/06/03","06:00",0.0,17.5,98.3,997.0,326.2,1.5,2.2,323.5,0.00,17.3,19.6,"05:57:52",1
"23/06/03","06:10",0.0,17.5,98.2,997.2,330.1,1.3,2.1,335.0,0.00,17.3,19.7,"06:07:52",1
"23/06/03","06:20",0.0,17.5,98.2,997.4,337.7,1.3,2.2,334.4,0.01,17.3,19.7,"06:18:32",1
"23/06/03","06:30",0.0,17.8,98.2,997.2,326.4,1.2,2.1,331.0,0.02,17.6,19.6,"06:20:40",1
"23/06/03","06:40",0.0,17.6,98.1,996.7,315.7,1.6,2.7,310.5,0.03,17.3,19.7,"06:37:52",1
"23/06/03","06:50",0.0,17.8,98.0,996.7,325.1,1.8,2.7,324.4,0.03,17.5,19.8,"06:44:08",1
"23/06/03","07:00",0.0,17.9,97.9,997.2,327.7,1.6,2.8,340.7,0.01,17.6,19.7,"06:53:44",1
"23/06/03","07:10",0.0,17.5,98.3,996.7,331.4,2.2,3.9,326.2,0.04,17.3,19.5,"07:03:52",1
"23/06/03","07:20",0.0,17.9,97.7,997.0,326.0,1.8,2.8,326.8,0.06,17.6,19.8,"07:14:00",1
"23/06/03","07:30",0.0,17.7,97.6,997.0,327.7,2.0,3.6,327.5,0.12,17.4,19.7,"07:28:08",1
"23/06/03","07:40",0.0,17.6,96.9,997.0,324.1,2.2,3.7,333.4,0.17,17.1,19.7,"07:38:08",1
"23/06/03","07:50",0.0,17.9,96.3,997.0,336.7,2.2,4.4,2.2,0.15,17.3,19.6,"07:44:40",1
"23/06/03","08:00",0.0,18.1,95.9,997.2,332.0,2.1,3.6,352.4,0.16,17.5,19.7,"07:50:24",1
"23/06/03","08:10",0.0,18.3,95.0,997.0,325.2,2.1,5.6,296.1,0.21,17.5,19.7,"08:08:00",1
"23/06/03","08:20",0.0,19.1,93.4,997.2,324.8,2.2,5.9,344.3,0.27,18.0,19.6,"08:16:24",1
"23/06/03","08:30",0.0,19.8,89.9,997.2,324.4,2.1,3.6,316.9,0.31,18.1,19.6,"08:26:48",1
"23/06/03","08:40",0.0,20.7,83.7,997.4,329.1,1.7,3.3,337.8,0.35,17.9,19.5,"08:39:04",1
"23/06/03","08:50",0.0,21.6,77.7,997.4,349.8,1.2,2.6,57.9,0.35,17.6,19.5,"08:42:16",1
"23/06/03","09:00",0.0,21.9,72.9,997.2,315.8,1.7,5.0,328.9,0.29,16.9,19.5,"08:59:20",1
"23/06/03","09:10",0.0,20.9,74.9,998.2,336.4,2.3,4.8,334.6,0.16,16.3,19.5,"09:04:00",1
"23/06/03","09:20",0.0,21.9,73.1,998.2,329.0,2.1,4.2,346.3,0.38,16.9,19.6,"09:10:24",1
"23/06/03","09:30",0.0,21.3,69.9,997.9,325.3,2.5,5.2,332.9,0.28,15.6,19.3,"09:29:04",1
"23/06/03","09:40",0.0,21.3,69.8,997.4,346.8,2.7,8.1,343.0,0.31,15.6,19.3,"09:39:52",1
"23/06/03","09:50",0.0,20.6,69.9,997.4,346.0,3.2,7.8,329.5,0.13,15.0,19.5,"09:45:12",1
"23/06/03","10:00",0.0,20.6,70.2,997.4,1.0,3.2,7.2,15.6,0.18,15.0,19.7,"09:54:56",1
"23/06/03","10:10",0.0,21.6,69.4,997.2,354.2,2.5,6.2,349.0,0.36,15.8,19.6,"10:02:00",1
"23/06/03","10:20",0.0,21.8,65.3,997.2,13.3,2.7,8.9,333.2,0.44,15.0,19.6,"10:19:28",1
"23/06/03","10:30",0.0,22.5,66.8,996.7,358.4,2.7,7.4,5.9,0.47,16.1,19.6,"10:22:08",1
"23/06/03","10:40",0.0,22.5,63.6,996.5,343.0,2.7,5.8,323.3,0.50,15.3,19.7,"10:37:20",1
"23/06/03","10:50",0.0,22.4,63.3,996.5,358.2,3.4,7.4,350.9,0.51,15.1,19.5,"10:42:56",1
"23/06/03","11:00",0.0,22.4,64.0,996.5,348.4,4.1,11.8,328.3,0.54,15.3,19.7,"10:56:24",1
"23/06/03","11:10",0.0,22.7,62.7,996.5,10.0,4.2,7.8,29.3,0.58,15.3,19.6,"11:04:32",1
"23/06/03","11:20",0.0,22.4,60.5,996.5,11.6,4.4,9.3,35.5,0.58,14.4,19.6,"11:10:48",1
"23/06/03","11:30",0.0,22.3,60.0,996.7,356.9,4.1,8.6,330.3,0.59,14.2,19.7,"11:28:16",1
"23/06/03","11:40",0.0,22.6,60.8,996.7,2.6,4.0,9.4,353.0,0.59,14.7,19.7,"11:30:32",1
"23/06/03","11:50",0.0,22.7,59.3,996.7,2.3,3.9,10.4,25.5,0.57,14.4,19.8,"11:45:52",1
"23/06/03","12:00",0.0,22.7,61.6,996.5,353.9,3.7,9.3,337.2,0.57,15.0,19.8,"11:57:36",1
"23/06/03","12:10",0.0,23.1,61.4,996.7,342.5,3.7,7.5,323.0,0.59,15.3,19.8,"12:02:40",1
"23/06/03","12:20",0.0,23.0,59.8,996.5,352.1,3.6,9.6,331.9,0.60,14.8,19.8,"12:13:52",1
"23/06/03","12:30",0.0,22.8,59.9,996.5,349.6,4.0,10.3,346.4,0.61,14.7,20.0,"12:27:12",1
"23/06/03","12:40",0.0,22.8,58.9,996.5,356.1,4.1,7.5,32.7,0.61,14.4,20.0,"12:37:52",1
"23/06/03","12:50",0.0,22.9,59.6,996.5,353.4,4.0,8.5,19.1,0.61,14.7,20.1,"12:41:44",1
"23/06/03","13:00",0.0,23.0,58.2,996.7,334.3,4.1,8.3,317.8,0.61,14.4,20.0,"12:52:48",1
"23/06/03","13:10",0.0,22.9,56.9,996.5,347.3,4.6,8.3,339.2,0.61,14.0,20.0,"13:08:48",1
"23/06/03","13:20",0.0,22.9,55.4,996.5,3.0,3.9,9.4,31.8,0.60,13.5,20.2,"13:10:24",1
"23/06/03","13:30",0.0,23.1,55.0,996.5,5.9,3.9,7.9,8.7,0.59,13.6,20.2,"13:22:24",1
"23/06/03","13:40",0.0,23.2,56.4,996.3,340.2,3.7,7.2,324.9,0.60,14.1,20.2,"13:32:48",1
"23/06/03","13:50",0.0,23.2,54.3,996.5,339.7,3.6,9.4,325.4,0.58,13.5,20.3,"13:48:16",1
"23/06/03","14:00",0.0,23.6,56.3,996.3,351.1,3.5,9.4,53.1,0.57,14.4,20.2,"13:52:40",1
"23/06/03","14:10",0.0,23.4,52.3,996.5,326.4,3.5,8.3,327.9,0.56,13.1,20.4,"14:07:44",1
"23/06/03","14:20",0.0,23.2,53.8,996.7,324.6,4.1,9.0,334.2,0.55,13.4,20.2,"14:13:36",1
"23/06/03","14:30",0.0,23.4,52.1,997.2,343.9,3.5,8.5,344.6,0.54,13.1,20.4,"14:28:00",1
"23/06/03","14:40",0.0,23.5,53.4,997.0,336.2,4.0,8.1,308.5,0.53,13.5,20.3,"14:35:52",1
"23/06/03","14:50",0.0,23.3,52.7,996.7,341.6,3.9,7.9,320.1,0.51,13.1,20.3,"14:49:04",1
"23/06/03","15:00",0.0,23.5,53.5,996.7,353.0,3.5,9.1,32.5,0.50,13.6,20.5,"14:53:06",1
"23/06/03","15:10",0.0,23.5,53.5,997.0,359.5,3.2,6.6,34.9,0.48,13.6,20.5,"15:01:20",1
"23/06/03","15:20",0.0,23.5,53.8,996.7,359.6,3.5,6.8,24.4,0.47,13.6,20.4,"15:11:28",1
"23/06/03","15:30",0.0,23.4,54.1,997.4,353.6,3.6,7.3,0.9,0.45,13.6,20.5,"15:28:40",1
"23/06/03","15:40",0.0,23.2,53.1,997.4,1.4,3.9,6.6,26.9,0.43,13.2,20.6,"15:36:40",1
"23/06/03","15:50",0.0,23.0,54.0,997.9,358.0,4.1,9.5,352.1,0.41,13.2,20.4,"15:46:08",1
"23/06/03","16:00",0.0,23.4,54.4,997.7,355.0,3.2,7.9,321.5,0.39,13.7,20.4,"15:59:20",1
"23/06/03","16:10",0.0,23.4,53.3,997.4,359.7,3.2,6.3,358.0,0.37,13.4,20.5,"16:08:24",1
"23/06/03","16:20",0.0,23.2,52.7,997.7,4.5,3.1,5.5,11.4,0.35,13.1,20.7,"16:15:12",1
"23/06/03","16:30",0.0,23.2,52.2,997.9,4.0,3.4,7.3,8.4,0.31,12.9,20.7,"16:29:12",1
"23/06/03","16:40",0.0,22.4,54.1,998.2,2.2,3.6,8.1,19.6,0.16,12.7,20.6,"16:30:16",1
"23/06/03","16:50",0.0,22.3,55.5,998.2,354.4,4.1,8.8,319.4,0.20,13.0,20.6,"16:43:12",1
"23/06/03","17:00",0.0,22.0,56.0,998.4,352.8,3.2,7.0,330.0,0.15,12.9,20.6,"16:50:08",1
"23/06/03","17:10",0.0,21.9,56.3,998.4,357.2,3.7,11.4,340.9,0.15,12.9,20.6,"17:06:24",1
"23/06/03","17:20",0.0,22.1,55.8,998.4,358.2,2.6,5.9,342.2,0.15,12.9,20.5,"17:19:28",1
"23/06/03","17:30",0.0,22.3,54.5,998.6,0.1,2.6,5.2,342.3,0.18,12.7,20.5,"17:20:56",1
"23/06/03","17:40",0.0,22.2,55.3,999.1,350.6,2.7,4.9,355.7,0.11,12.9,20.5,"17:36:00",1
"23/06/03","17:50",0.0,21.8,55.2,999.3,346.7,2.3,4.8,325.9,0.01,12.5,20.7,"17:48:08",1
"23/06/03","18:00",0.0,21.4,56.5,999.1,349.8,2.8,5.9,347.6,0.01,12.4,20.6,"17:53:04",1
"23/06/03","18:10",0.0,21.6,57.0,999.1,332.5,2.8,5.6,330.6,0.01,12.8,20.7,"18:02:00",1
"23/06/03","18:20",0.0,21.6,57.0,999.6,353.1,2.5,4.1,343.5,0.01,12.8,20.7,"18:10:02",1
"23/06/03","18:30",0.0,21.5,58.0,999.8,338.6,2.3,5.5,347.7,0.00,12.9,20.6,"18:23:44",1
"23/06/03","18:40",0.0,21.1,56.2,1000.3,341.2,2.8,6.3,351.6,0.00,12.1,20.5,"18:39:28",1
"23/06/03","18:50",0.0,20.7,58.0,1000.0,336.2,2.7,5.5,287.5,0.00,12.2,20.5,"18:46:08",1
"23/06/03","19:00",0.0,20.5,58.8,1000.3,326.4,2.5,4.9,336.8,0.00,12.2,20.6,"18:53:04",1
"23/06/03","19:10",0.0,20.2,59.6,1000.5,331.1,2.8,5.2,342.6,0.01,12.1,20.6,"19:08:32",1
"23/06/03","19:20",0.0,19.9,59.8,1000.8,331.4,2.1,3.5,329.3,0.00,11.9,20.3,"19:13:12",1
"23/06/03","19:30",0.0,19.5,63.2,1001.0,330.2,1.6,2.4,335.5,0.00,12.4,20.5,"19:20:08",1
"23/06/03","19:40",0.0,18.9,66.4,1001.0,341.7,1.8,3.1,320.2,0.00,12.5,20.4,"19:33:28",1
"23/06/03","19:50",0.0,18.4,69.0,1001.0,337.4,1.5,2.4,341.1,0.00,12.7,20.3,"19:41:20",1
"23/06/03","20:00",0.0,18.2,70.3,1001.2,339.2,1.5,3.4,332.5,0.00,12.7,20.3,"19:52:48",1
"23/06/03","20:10",0.0,17.9,71.2,1001.5,339.0,1.6,4.0,344.2,0.00,12.7,20.4,"20:00:40",1
"23/06/03","20:20",0.0,17.9,72.3,1001.9,335.2,1.7,3.2,348.7,0.00,12.9,20.2,"20:10:48",1
"23/06/03","20:30",0.0,17.3,73.6,1001.9,331.3,1.1,1.3,342.7,0.00,12.6,20.3,"20:21:20",1
"23/06/03","20:40",0.0,16.8,76.0,1002.4,332.3,1.3,2.0,343.6,0.00,12.6,20.3,"20:31:36",1
"23/06/03","20:50",0.0,16.3,78.6,1002.4,328.9,1.3,1.9,315.5,0.00,12.6,20.2,"20:43:04",1
"23/06/03","21:00",0.0,15.9,80.5,1002.6,315.4,1.1,1.7,300.8,0.00,12.6,20.2,"20:50:02",1
"23/06/03","21:10",0.0,15.7,81.9,1003.1,298.3,1.5,1.9,318.2,0.00,12.7,20.1,"21:04:00",1
"23/06/03","21:20",0.0,15.5,82.7,1003.4,294.2,1.2,2.5,305.2,0.00,12.6,19.9,"21:13:12",1
"23/06/03","21:30",0.0,15.4,83.5,1003.4,285.6,1.1,2.5,329.2,0.00,12.7,19.9,"21:29:52",1
"23/06/03","21:40",0.0,15.4,84.3,1003.4,305.6,2.0,3.2,312.3,0.00,12.8,19.9,"21:39:44",1
"23/06/03","21:50",0.0,15.4,84.7,1003.6,307.8,2.0,2.9,302.7,0.00,12.9,20.0,"21:40:32",1
"23/06/03","22:00",0.0,15.2,85.1,1003.8,292.4,1.3,3.1,316.3,0.00,12.8,19.8,"21:58:40",1
"23/06/03","22:10",0.0,15.2,85.7,1004.3,311.1,1.6,2.6,319.4,0.00,12.9,19.7,"22:09:20",1
"23/06/03","22:20",0.0,15.0,86.1,1004.1,301.8,1.2,2.2,323.6,0.00,12.7,19.7,"22:14:42",1
"23/06/03","22:30",0.0,14.9,86.6,1004.1,290.0,1.6,2.5,304.3,0.00,12.7,19.7,"22:28:34",1
"23/06/03","22:40",0.0,14.9,87.1,1004.8,300.6,1.7,2.7,324.1,0.00,12.8,19.6,"22:34:32",1
"23/06/03","22:50",0.0,14.9,87.4,1004.5,305.9,2.5,3.7,333.2,0.00,12.9,19.4,"22:46:22",1
"23/06/03","23:00",0.0,14.9,87.5,1004.8,289.2,1.8,3.3,303.3,0.00,12.9,19.2,"22:51:54",1
"23/06/03","23:10",0.0,14.5,87.6,1004.5,270.1,1.1,1.7,292.3,0.00,12.5,19.5,"23:00:16",1
"23/06/03","23:20",0.0,14.3,88.0,1004.5,265.4,1.0,1.7,269.8,0.00,12.4,19.4,"23:18:32",1
"23/06/03","23:30",0.0,14.2,88.5,1004.8,311.6,1.5,1.9,315.4,0.00,12.4,19.3,"23:29:52",1
"23/06/03","23:40",0.0,14.0,88.8,1004.8,304.0,1.3,1.9,320.0,0.00,12.2,19.3,"23:30:16",1
"23/06/03","23:50",0.0,13.8,89.4,1004.5,276.0,1.1,1.7,272.0,0.00,12.1,19.2,"23:49:24",1
"23/06/03","24:00",0.0,13.7,89.8,1004.3,307.4,1.7,2.0,321.3,0.00,12.1,19.3,"23:51:28",1
